KBNAKFFL

Guest
Details From KBNA - Nashville Intl
To KFFL - Fairfield Muni
Flight Number -
Tags Generated
Created
Modified
Stats Distance 387 nm / 717 km
Max Altitude 0 ft / 0 m
Waypoints 3
Social Downloads 0
Likes 0
Share VATSIM

Download

Looking for another format? Having issues loading an existing format? Contact us
Advertisement - Login to hide

Notes

Generated

Route

KBNA 13722 KFFL

ID Type Via Altitude Latitude Longitude Leg Dist Tot Dist Heading (true) Name
O KBNA APT - 0 ft / 0 m 36.11768˚ -86.68648˚ - 0 nm - -
13722 FIX - 0 ft / 0 m 40.75662˚ -91.58327˚ 361 nm 361 nm 322° / 319° -
O KFFL APT - 0 ft / 0 m 41.05334˚ -91.98687˚ 25 nm 386 nm 314° / 314° -

Altitude Profile

Advertisement - Login to hide

Weather


0- 5 10 15 20 25 30 35+ Temperature / ° C

Clouds and Precipitation
Forecast for 2018-05-27 18:00 UTC. Updated 5 hours ago

Ground ~20,000 ft ~40,000 ft Winds

KBNA

Details ICAO KBNA (BNA)
Name Nashville_Intl
Region United States
Timezone America/Chicago (UTC-5.0)
Stats Elevation 598 ft / 182 m (AMSL)
Location 36.123898° -86.677881°
Runways 4
Magnetic Variation 3.877° W

METAR

KBNA 272153Z 07006KT 10SM FEW045TCU SCT120 BKN210 BKN250 30/18 A2988 RMK AO2 LTG DSNT S AND NW SLP111 CB DSNT N AND SE-S TCU E-S T03000178 $

Decode

TAF

KBNA 271733Z 2718/2818 11005KT P6SM VCTS SCT040CB FM280200 12004KT P6SM SCT150 FM281600 10006KT P6SM VCTS SCT040CB BKN100

Decode

Departure Runways

ID Width Length Bearing (true) Bearing (mag) Surface Threshold Offset Overrun Length
02C 151 ft / 46 m 8,016 ft / 2,443 m 17.91° 21.79° Concrete 0 ft / 0 m 0 ft / 0 m
02L 151 ft / 46 m 7,718 ft / 2,353 m 17.58° 21.46° Concrete 0 ft / 0 m 1,030 ft / 314 m
02R 151 ft / 46 m 8,016 ft / 2,443 m 17.91° 21.79° Concrete 0 ft / 0 m 200 ft / 61 m
13 151 ft / 46 m 11,030 ft / 3,362 m 133.43° 137.31° Asphalt 801 ft / 244 m 249 ft / 76 m
20C 151 ft / 46 m 8,016 ft / 2,443 m 197.92° 201.80° Concrete 0 ft / 0 m 200 ft / 61 m
20L 151 ft / 46 m 8,016 ft / 2,443 m 197.92° 201.80° Concrete 0 ft / 0 m 3 ft / 1 m
20R 151 ft / 46 m 7,718 ft / 2,353 m 197.58° 201.46° Concrete 0 ft / 0 m 194 ft / 59 m
31 151 ft / 46 m 11,030 ft / 3,362 m 313.45° 317.33° Asphalt 741 ft / 226 m 200 ft / 61 m

KFFL

Details ICAO KFFL
Name FAIRFIELD MUNI
Region United States
Timezone America/Chicago (UTC-5.0)
Stats Elevation 799 ft / 244 m (AMSL)
Location 41.053538° -91.982016°
Runways 2
Magnetic Variation 0.452° W

METAR

KFFL 272155Z AUTO 25004KT 10SM CLR 35/17 A2982 RMK AO2 PWINO

Decode

TAF

Not found

Destination Runways

ID Width Length Bearing (true) Bearing (mag) Surface Threshold Offset Overrun Length
08 165 ft / 50 m 2,445 ft / 745 m 86.43° 86.88° Dirt 0 ft / 0 m 0 ft / 0 m
18 75 ft / 23 m 4,007 ft / 1,221 m 179.64° 180.09° Asphalt 0 ft / 0 m 0 ft / 0 m
26 165 ft / 50 m 2,445 ft / 745 m 266.43° 266.88° Dirt 0 ft / 0 m 0 ft / 0 m
36 75 ft / 23 m 4,007 ft / 1,221 m 359.64° 0.09° Asphalt 0 ft / 0 m 0 ft / 0 m